New Bedford, MA

5:57 PM EDT on May 26, 2017 (GMT -0400)
New Bedford Regional

Weather History for KEWB - February, 2014

Change the Weather History Date:

Wednesday, February 19, 2014

  Actual Average Record
Temperature  
Mean Temperature 30 °F -  
Max Temperature 43 °F 40 °F 64 °F (2017)
Min Temperature 18 °F 27 °F 8 °F (1958)
Degree Days  
Heating Degree Days 34    
Moisture  
Dew Point 31 °F    
Average Humidity 89    
Maximum Humidity 100    
Minimum Humidity 70    
Precipitation  
Precipitation 0.31 in - - ()
Sea Level Pressure  
Sea Level Pressure 29.84 in    
Wind  
Wind Speed 6 mph (WSW)    
Max Wind Speed 12 mph    
Max Gust Speed 20 mph    
Visibility 5 miles    
Events Fog , Rain    
Averages and records for this station are not official NWS values.
T = Trace of Precipitation, MM = Missing Value Source: NWS Daily Summary

Daily Weather History Graph

Daily Weather History Graph

Search for Another Location

Airport or City:

Trip Planner

Search our weather history database for the weather conditions in past years. The results will help you decide how hot, cold, wet, or windy it might be!

Date:

Astronomy

Feb. 19, 2014 Rise Set
Actual Time 6:33 AM EST 5:22 PM EST
Civil Twilight 6:05 AM EST 5:50 PM EST
Nautical Twilight 5:33 AM EST 6:22 PM EST
Astronomical Twilight 5:00 AM EST 6:55 PM EST
Moon 10:17 PM EST (2/19) 8:33 AM EST (2/19)
Length of Visible Light 11h 45m
Length of Day
10h 48m
Waning Gibbous, 80% of the Moon is Illuminated
Feb 19
Waning Gibbous
Feb 22
Last Quarter
Mar 1
New
Mar 8
First Quarter
Mar 16
Full

Hourly Weather History & Observations

Time (EST) Temp. Windchill Dew Point Humidity Pressure Visibility Wind Dir Wind Speed Gust Speed Precip Events Conditions
12:53 AM 27.0 °F 19.5 °F 21.9 °F 81% 30.07 in 10.0 mi WSW 6.9 mph - N/A   Clear
1:53 AM 26.1 °F 18.4 °F 21.0 °F 81% 30.08 in 10.0 mi West 6.9 mph - N/A   Clear
2:53 AM 26.1 °F 17.6 °F 21.0 °F 81% 30.11 in 10.0 mi West 8.1 mph - N/A   Clear
3:53 AM 24.1 °F 19.7 °F 19.9 °F 84% 30.11 in 10.0 mi WSW 3.5 mph - N/A   Clear
4:53 AM 21.0 °F - 18.0 °F 88% 30.10 in 8.0 mi Calm Calm - N/A   Clear
5:53 AM 18.0 °F - 17.1 °F 96% 30.09 in 8.0 mi Calm Calm - N/A   Clear
6:53 AM 18.0 °F - 17.1 °F 96% 30.06 in 6.0 mi Calm Calm - N/A   Clear
7:53 AM 21.9 °F - 21.0 °F 96% 30.07 in 7.0 mi Calm Calm - N/A   Clear
8:53 AM 30.0 °F 22.4 °F 25.0 °F 82% 30.04 in 10.0 mi SE 8.1 mph - N/A   Clear
9:53 AM 33.1 °F 24.4 °F 25.0 °F 72% 30.04 in 10.0 mi SE 11.5 mph - N/A   Clear
10:53 AM 35.1 °F 27.4 °F 26.1 °F 70% 29.99 in 10.0 mi SE 10.4 mph - N/A   Clear
11:53 AM 37.0 °F 29.8 °F 28.0 °F 70% 29.94 in 10.0 mi SE 10.4 mph - N/A   Clear
12:53 PM 37.9 °F 32.7 °F 30.9 °F 76% 29.89 in 10.0 mi ESE 6.9 mph - N/A   Mostly Cloudy
1:53 PM 37.9 °F 34.4 °F 32.0 °F 79% 29.82 in 10.0 mi East 4.6 mph - N/A   Overcast
2:53 PM 37.9 °F 34.4 °F 34.0 °F 86% 29.77 in 8.0 mi East 4.6 mph - 0.01 in   Overcast
3:18 PM 41.0 °F 34.3 °F 36.0 °F 82% 29.72 in 9.0 mi SE 11.5 mph - N/A   Overcast
3:42 PM 42.1 °F 35.7 °F 39.0 °F 89% 29.72 in 2.0 mi South 11.5 mph 19.6 mph 0.05 in Rain Rain
3:53 PM 43.0 °F 37.7 °F 39.0 °F 86% 29.71 in 2.0 mi SE 9.2 mph 19.6 mph 0.08 in Rain Rain
4:04 PM 42.1 °F - 39.9 °F 92% 29.70 in 2.5 mi Calm Calm - 0.04 in Rain Rain
4:10 PM 42.1 °F 39.2 °F 39.9 °F 92% 29.70 in 1.8 mi Variable 4.6 mph - 0.07 in Rain Rain
4:21 PM 42.1 °F 38.4 °F 39.9 °F 92% 29.69 in 2.5 mi SE 5.8 mph - 0.10 in Rain Rain
4:53 PM 42.1 °F 39.2 °F 41.0 °F 96% 29.68 in 3.0 mi SW 4.6 mph - 0.14 in Rain Light Rain
5:04 PM 42.1 °F - 41.0 °F 96% 29.67 in 2.5 mi Calm Calm - 0.00 in Rain Light Rain
5:14 PM 42.1 °F - 42.1 °F 100% 29.66 in 1.0 mi Calm Calm - 0.00 in Rain Light Rain
5:21 PM 42.1 °F - 41.0 °F 96% 29.67 in 0.5 mi Calm Calm - 0.00 in Fog , Rain Light Rain
5:53 PM 39.9 °F 35.1 °F 39.9 °F 100% 29.67 in 0.5 mi North 6.9 mph - 0.00 in Fog Fog
6:06 PM 37.0 °F 32.4 °F 36.0 °F 96% 29.67 in 1.5 mi NNW 5.8 mph - N/A   Overcast
6:53 PM 35.1 °F 31.0 °F 34.0 °F 96% 29.69 in 1.2 mi WNW 4.6 mph - N/A   Overcast
7:53 PM 34.0 °F 28.8 °F 33.1 °F 96% 29.70 in 2.0 mi WNW 5.8 mph - N/A   Overcast
8:28 PM 34.0 °F 27.2 °F 33.1 °F 96% 29.74 in 1.5 mi West 8.1 mph - N/A   Overcast
8:53 PM 34.0 °F 28.8 °F 33.1 °F 96% 29.75 in 1.2 mi WNW 5.8 mph - 0.00 in Rain Light Rain
9:37 PM 34.0 °F 28.0 °F 32.0 °F 92% 29.74 in 2.5 mi WNW 6.9 mph - 0.04 in Rain Light Rain
9:45 PM 34.0 °F 27.2 °F 33.1 °F 96% 29.75 in 3.0 mi WNW 8.1 mph - 0.04 in Rain Light Rain
9:53 PM 34.0 °F 25.5 °F 32.0 °F 92% 29.76 in 4.0 mi West 11.5 mph - 0.04 in Rain Light Rain
10:21 PM 34.0 °F 28.0 °F 33.1 °F 96% 29.77 in 4.0 mi WNW 6.9 mph - 0.03 in Rain Light Rain
10:53 PM 34.0 °F 26.0 °F 32.0 °F 92% 29.80 in 6.0 mi WNW 10.4 mph - 0.04 in Rain Light Rain
11:46 PM 34.0 °F 28.0 °F 32.0 °F 92% 29.83 in 6.0 mi WNW 6.9 mph - 0.00 in   Overcast
11:53 PM 34.0 °F 27.2 °F 32.0 °F 92% 29.83 in 6.0 mi WNW 8.1 mph - 0.00 in   Overcast